Wind_Speed
11 9 6 9 14 13 15 17 18 17 17 16 17 18 20 21 23 24 21 21 23 23 22 19 16 15 14 16 15 13 14 16 15 15 11 11 10 9 8 8 7 7 9
8 7 8 9 11 11 12 18 21 21 19 18 19 17 18 20 24 23 22 21 23 23 23 22 21 18 18 19 17 16 16 21 20 18 13 12 14 12 11 12 10 9 10
11 9 10 10 12 11 10 14 18 21 21 19 18 19 20 24 21 22 22 19 25 24 24 23 24 22 21 22 19 17 16 12 9 15 14 13 14 16 15 15 14 14 13
10 9 11 10 13 13 12 15 15 17 18 22 24 23 23 25 24 28 23 20 21 29 27 26 27 26 24 23 22 21 16 11 12 15 16 16 16 17 19 19 19 18 18
12 15 12 12 15 14 16 17 20 19 21 20 22 20 19 20 14 17 19 22 19 21 26 28 28 29 28 25 25 21 18 17 18 17 18 19 18 20 22 21 22 23 22
13 14 13 13 15 16 18 19 22 22 24 23 21 20 19 18 18 23 21 24 23 24 21 22 22 24 23 25 24 22 21 21 21 22 24 26 26 27 28 24 23 26 26
8 10 14 12 14 16 18 18 18 20 22 21 20 21 19 19 20 19 25 24 26 26 25 24 22 21 21 23 24 21 25 23 22 22 23 24 28 26 27 27 27 25 24
9 11 10 11 12 15 14 15 16 18 22 22 20 20 19 19 17 22 24 26 25 27 26 24 24 22 23 25 25 25 26 25 20 24 27 30 26 26 26 27 28 28 26
10 9 9 10 12 14 12 14 16 19 19 19 20 20 19 18 22 22 25 24 23 24 27 26 25 23 21 25 28 29 33 30 25 24 29 23 31 28 29 29 33 33 34
11 9 7 9 11 14 15 16 18 19 22 19 17 20 20 19 17 15 24 22 22 22 24 26 25 22 22 23 25 25 30 34 31 33 30 31 31 31 34 34 35 38 36
11 8 8 8 10 12 14 14 15 14 15 16 17 17 18 19 19 21 15 20 21 22 23 25 23 23 24 25 25 26 28 23 23 31 31 32 29 37 37 33 39 37 32
7 7 7 8 9 13 10 11 13 14 12 12 12 14 15 18 21 20 18 22 22 24 19 20 23 23 24 24 24 24 23 21 18 16 22 19 26 27 31 36 38 43 39
5 7 7 6 8 8 8 9 9 8 8 7 8 11 12 13 17 19 21 22 17 22 18 19 19 19 19 19 22 24 23 21 19 16 15 18 14 30 30 29 35 33 33
3 4 4 5 3 5 5 6 7 7 5 4 4 4 7 8 9 16 18 10 15 17 17 20 21 21 19 18 21 21 19 18 16 15 15 15 18 18 19 23 26 28 29
3 2 4 4 5 5 6 7 7 5 6 4 1 3 2 4 5 5 4 9 11 12 18 20 19 18 19 19 20 21 21 21 19 21 20 19 19 20 21 23 26 29 33
4 4 4 4 6 6 6 6 9 7 6 6 4 3 3 2 2 2 4 8 11 13 12 12 15 17 18 20 21 22 24 23 23 23 24 24 23 24 26 26 27 29 32
2 3 5 5 6 6 5 5 6 8 8 9 10 10 8 5 4 4 4 5 7 8 9 13 15 17 17 18 19 19 20 23 19 21 25 28 28 26 25 26 26 26 27
2 2 3 5 5 4 4 8 9 9 9 10 12 12 12 11 10 9 8 8 9 10 10 12 14 15 16 17 19 20 20 19 18 20 21 24 25 25 27 28 29 30 32
3 4 4 4 4 1 0 3 3 2 3 4 6 6 6 7 8 9 9 9 11 12 12 12 13 14 15 17 17 17 18 20 20 21 22 23 25 27 28 30 31 31 32
3 5 4 4 4 3 3 4 4 4 6 7 8 9 11 12 12 13 15 15 15 16 17 17 19 21 22 22 22 23 24 27 27 28 28 29 30 31 31 31 33 35 35
6 6 6 7 6 5 6 7 6 7 9 11 12 14 16 16 16 15 14 14 14 15 19 21 24 26 28 30 31 31 32 33 33 35 37 37 38 38 38 35 34 34 35
9 8 8 7 8 7 7 10 10 11 11 12 13 13 13 14 14 14 16 19 20 21 22 24 26 28 29 32 34 35 36 37 38 38 40 40 39 40 40 38 37 34 33
7 10 12 10 9 8 9 9 8 7 8 8 10 13 16 17 18 20 21 22 23 24 26 26 28 29 30 33 34 36 37 38 39 39 39 41 41 40 40 39 37 35 32
9 9 12 12 12 10 7 7 8 9 11 14 17 19 20 21 22 22 24 25 26 28 29 31 33 33 33 33 35 36 38 39 40 42 43 41 40 39 37 34 31 29 28
10 7 6 5 6 7 11 15 15 16 18 19 18 20 22 24 24 24 26 27 29 30 31 33 33 34 34 35 36 38 39 41 42 41 40 39 37 35 32 31 31 31 30
11 8 7 10 14 17 19 20 19 18 17 20 23 24 25 27 29 29 30 31 32 32 33 34 34 36 35 35 37 38 39 40 41 41 38 36 34 33 32 32 33 32 32
Wind_Direction
260 252 253 244 234 234 241 243 242 242 246 247 248 246 244 247 250 249 253 235 248 253 257 259 252 254 263 275 280 287 286 282 272 261 249 237 241 246 247 245 250 254 246
237 238 228 225 223 241 260 250 246 242 243 245 248 247 247 257 252 252 255 241 233 243 250 251 258 260 257 266 275 280 286 288 258 237 242 238 241 242 248 246 243 244 254
216 225 233 234 252 250 257 257 253 247 243 249 259 253 251 255 261 245 251 259 238 236 242 246 250 251 259 267 269 275 288 307 211 225 237 246 250 251 248 249 249 246 250
240 244 239 240 247 258 260 265 265 261 260 258 261 268 264 278 247 240 242 249 245 241 240 243 247 249 252 260 266 273 268 267 241 240 254 255 257 259 255 252 250 249 246
235 249 259 261 271 270 263 260 259 261 262 262 264 272 261 269 243 234 245 246 240 243 240 244 249 253 255 257 260 264 249 254 246 250 251 254 264 270 267 261 257 255 254
248 250 264 266 271 267 262 256 258 254 252 255 261 266 261 267 252 237 236 238 237 236 238 248 251 253 252 250 251 252 250 251 251 264 258 257 270 275 264 263 258 265 257
271 275 279 278 272 274 273 273 265 261 261 264 259 256 251 250 259 247 233 237 244 244 241 248 247 250 249 245 249 255 260 252 254 256 262 268 272 277 265 261 261 266 260
292 290 278 274 280 285 279 270 271 265 265 266 261 264 264 257 253 252 242 242 247 245 238 245 248 243 246 247 246 248 255 260 253 267 259 258 265 268 271 261 259 257 257
299 297 280 272 274 281 285 285 278 272 270 269 264 265 262 262 255 259 229 238 243 243 239 242 244 248 254 256 257 259 262 264 264 270 278 271 274 271 266 263 262 257 258
316 306 299 292 295 293 295 289 282 279 279 274 266 259 256 255 261 251 237 238 242 238 237 240 243 253 257 263 268 272 269 268 269 263 271 273 269 268 266 265 266 261 259
316 322 313 289 291 288 291 294 291 283 277 278 268 260 254 256 257 244 245 245 250 246 243 239 246 252 260 267 269 278 279 292 292 265 269 277 273 257 254 265 266 260 260
303 304 294 292 291 298 303 303 301 283 279 274 264 259 255 255 258 262 253 253 255 240 241 245 246 251 258 266 270 269 284 297 308 294 270 292 273 256 252 263 262 264 269
331 334 328 305 294 303 313 318 322 308 296 278 275 259 258 258 260 247 250 250 264 229 236 241 245 250 258 264 271 278 298 306 304 309 314 300 277 249 266 265 263 261 264
330 339 330 321 329 335 331 347 348 350 323 326 306 281 269 275 263 246 247 253 262 222 242 253 257 262 264 267 273 282 287 295 287 291 293 291 283 279 268 259 257 259 265
21 318 348 349 3 358 4 5 13 18 24 35 18 347 298 282 304 303 214 263 254 254 246 254 262 266 268 272 275 281 285 290 293 289 290 289 284 280 273 271 270 271 271
39 37 13 358 342 351 358 17 34 43 62 69 40 46 44 10 348 326 280 282 278 275 272 274 267 266 266 274 279 279 282 294 294 283 283 286 285 284 280 272 274 276 273
12 17 17 351 344 353 28 44 44 57 66 67 55 51 59 43 6 337 327 293 288 292 276 272 271 270 269 275 278 282 283 287 291 292 287 275 278 286 284 271 272 268 270
32 335 325 331 331 352 80 79 74 79 77 71 66 57 50 45 36 22 5 349 331 326 320 298 289 285 282 277 275 276 276 281 282 280 281 279 279 280 272 270 268 269 271
17 354 357 324 301 319 73 101 88 78 41 18 16 13 4 348 337 328 318 312 309 307 308 306 301 298 292 288 284 279 276 277 277 278 279 280 280 280 281 280 278 275 276
329 340 337 324 290 253 239 235 238 266 283 295 310 317 315 311 310 308 307 304 301 300 297 294 293 290 287 284 281 278 276 276 277 279 283 287 288 287 284 282 277 276 275
308 313 313 304 289 284 273 269 271 276 284 291 296 300 303 305 305 302 300 299 295 289 288 288 287 286 285 285 284 284 284 283 284 286 288 288 288 289 288 287 282 276 273
298 299 295 298 289 282 274 273 274 280 287 297 303 306 309 310 308 304 299 298 295 291 288 286 284 280 279 276 275 276 277 279 280 280 280 283 283 285 287 288 286 283 279
309 293 291 295 289 290 294 292 296 308 310 314 313 309 305 305 308 305 304 302 299 295 290 287 284 280 277 274 273 273 278 280 281 282 281 283 284 283 283 283 283 282 280
317 313 306 294 286 297 298 304 309 306 307 308 309 307 307 307 307 308 305 301 298 295 292 290 287 284 283 282 278 276 275 275 279 282 282 283 284 284 283 283 281 278 274
308 308 312 306 304 302 303 304 308 308 310 308 310 309 309 307 308 308 306 303 301 298 294 292 291 288 285 284 285 281 279 279 282 281 283 282 284 284 281 279 277 276 275
299 288 289 304 309 311 311 310 310 311 311 310 313 314 311 309 310 310 309 307 304 302 300 298 296 293 291 289 287 284 282 283 285 285 285 284 282 280 277 275 274 275 275
Height
5886 5886 5887 5886 5888 5888 5889 5890 5892 5892 5892 5892 5893 5895 5896 5898 5899 5900 5900 5901 5904 5906 5907 5906 5909 5912 5913 5912 5912 5911 5910 5910 5910 5911 5911 5912 5913 5914 5915 5915 5916 5916 5917
5884 5884 5885 5885 5885 5886 5886 5886 5888 5888 5889 5889 5889 5891 5892 5893 5893 5895 5896 5896 5899 5902 5903 5904 5906 5908 5909 5909 5909 5909 5907 5905 5905 5907 5908 5909 5910 5911 5913 5913 5914 5915 5915
5883 5882 5883 5882 5883 5882 5882 5883 5884 5885 5885 5886 5886 5887 5888 5888 5889 5889 5891 5893 5895 5896 5899 5900 5902 5904 5905 5906 5906 5906 5905 5902 5901 5904 5905 5906 5908 5909 5910 5911 5911 5912 5913
5881 5880 5881 5881 5881 5880 5880 5880 5880 5880 5881 5881 5882 5883 5884 5883 5882 5884 5885 5889 5890 5892 5894 5895 5897 5899 5900 5901 5903 5903 5903 5902 5903 5903 5904 5905 5905 5906 5907 5908 5908 5908 5909
5879 5878 5880 5879 5879 5879 5878 5877 5877 5877 5877 5877 5877 5879 5879 5879 5878 5881 5882 5884 5885 5887 5889 5891 5892 5894 5895 5898 5899 5899 5900 5900 5900 5900 5901 5902 5902 5903 5903 5904 5905 5905 5905
5877 5877 5877 5876 5875 5875 5874 5873 5873 5873 5873 5873 5874 5875 5876 5875 5876 5877 5878 5879 5881 5883 5884 5886 5888 5889 5891 5893 5894 5894 5895 5895 5896 5896 5897 5898 5898 5898 5898 5900 5901 5901 5901
5874 5874 5873 5872 5872 5871 5871 5870 5870 5870 5869 5869 5870 5869 5871 5871 5872 5873 5874 5875 5877 5877 5880 5882 5884 5885 5887 5888 5889 5890 5889 5890 5891 5891 5893 5893 5893 5894 5893 5895 5896 5897 5898
5872 5871 5871 5870 5870 5869 5869 5867 5866 5865 5864 5864 5865 5864 5866 5867 5867 5869 5870 5872 5873 5874 5876 5877 5880 5880 5882 5884 5885 5885 5886 5886 5886 5885 5885 5886 5885 5888 5888 5890 5890 5892 5893
5870 5869 5868 5867 5868 5867 5866 5864 5862 5861 5860 5859 5859 5861 5861 5862 5861 5863 5865 5867 5868 5871 5872 5873 5875 5876 5880 5881 5882 5882 5882 5881 5881 5882 5880 5851 5879 5881 5883 5883 5883 5884 5885
5868 5866 5865 5864 5865 5864 5863 5861 5860 5857 5855 5855 5855 5856 5856 5857 5858 5859 5861 5863 5865 5866 5867 5870 5872 5874 5876 5876 5875 5876 5875 5874 5874 5875 5874 5874 5874 5876 5876 5877 5877 5877 5878
5864 5864 5864 5863 5863 5864 5861 5858 5856 5854 5853 5851 5851 5852 5852 5852 5852 5854 5855 5859 5860 5862 5865 5867 5868 5870 5870 5870 5870 5871 5869 5868 5867 5867 5869 5868 5868 5869 5869 5869 5870 5870 5870
5865 5864 5863 5863 5861 5861 5858 5856 5853 5850 5849 5849 5848 5847 5848 5849 5849 5850 5853 5854 5856 5857 5860 5861 5864 5865 5865 5865 5865 5866 5865 5864 5863 5862 5863 5860 5858 5860 5862 5862 5863 5863 5864
5864 5863 5862 5861 5860 5859 5856 5854 5851 5848 5846 5845 5845 5845 5846 5846 5847 5848 5850 5851 5851 5854 5855 5857 5858 5860 5860 5861 5861 5861 5861 5860 5858 5857 5856 5854 5851 5853 5853 5853 5855 5856 5857
5863 5863 5862 5861 5859 5858 5856 5853 5850 5847 5846 5843 5843 5842 5842 5843 5844 5845 5847 5848 5849 5846 5851 5853 5854 5855 5856 5856 5856 5857 5857 5856 5854 5852 5850 5848 5847 5847 5847 5848 5849 5849 5849
5863 5863 5862 5861 5859 5858 5855 5854 5850 5848 5846 5844 5843 5841 5841 5842 5842 5842 5844 5846 5847 5848 5849 5849 5850 5851 5852 5852 5852 5852 5851 5850 5849 5847 5845 5844 5843 5842 5842 5842 5842 5842 5841
5863 5862 5861 5861 5860 5858 5855 5854 5852 5849 5847 5845 5845 5844 5843 5843 5843 5842 5842 5844 5846 5846 5841 5846 5847 5848 5848 5848 5848 5847 5846 5845 5843 5842 5841 5839 5838 5837 5835 5834 5834 5833 5832
5862 5861 5860 5860 5859 5857 5855 5853 5853 5851 5850 5848 5847 5846 5843 5843 5843 5843 5843 5843 5844 5844 5844 5844 5844 5844 5843 5843 5843 5842 5841 5840 5838 5837 5835 5833 5833 5831 5828 5827 5827 5826 5825
5860 5860 5859 5859 5858 5857 5855 5854 5853 5853 5852 5850 5849 5847 5846 5845 5844 5844 5843 5843 5843 5842 5841 5841 5841 5840 5838 5838 5837 5836 5835 5835 5833 5832 5830 5829 5826 5825 5824 5823 5822 5820 5818
5859 5859 5858 5858 5858 5856 5855 5854 5853 5853 5852 5851 5850 5848 5848 5847 5845 5844 5843 5843 5842 5840 5839 5838 5836 5835 5834 5833 5832 5831 5830 5829 5827 5826 5824 5822 5820 5818 5816 5814 5811 5809 5808
5858 5857 5857 5857 5857 5855 5854 5853 5852 5851 5851 5850 5848 5848 5847 5846 5844 5842 5840 5839 5838 5836 5835 5833 5832 5830 5829 5827 5826 5825 5824 5821 5819 5817 5815 5813 5811 5809 5807 5804 5802 5800 5799
5856 5855 5855 5855 5855 5854 5853 5852 5851 5849 5849 5848 5846 5845 5844 5843 5841 5839 5837 5836 5835 5833 5831 5829 5827 5824 5822 5820 5818 5816 5814 5812 5809 5807 5804 5802 5800 5797 5795 5792 5791 5789 5787
5854 5853 5853 5852 5852 5850 5850 5850 5848 5847 5846 5844 5843 5842 5841 5839 5838 5836 5834 5832 5830 5828 5826 5823 5821 5818 5815 5813 5810 5807 5804 5802 5800 5798 5794 5792 5789 5786 5783 5781 5779 5777 5776
5852 5851 5850 5849 5849 5847 5846 5846 5845 5843 5842 5841 5839 5838 5836 5835 5834 5832 5829 5826 5824 5821 5819 5816 5812 5810 5806 5803 5801 5798 5795 5792 5789 5786 5784 5781 5779 5776 5773 5771 5769 5767 5765
5851 5848 5847 5846 5846 5845 5844 5842 5842 5840 5838 5837 5835 5833 5831 5829 5827 5825 5822 5820 5817 5813 5810 5807 5803 5800 5798 5795 5791 5788 5785 5782 5779 5776 5774 5771 5768 5766 5763 5761 5759 5757 5756
5849 5846 5844 5843 5844 5843 5841 5840 5839 5837 5834 5831 5829 5828 5826 5823 5820 5818 5815 5811 5808 5805 5801 5797 5793 5790 5787 5784 5780 5777 5774 5771 5768 5765 5762 5759 5757 5755 5754 5751 5749 5748 5747
5847 5845 5843 5841 5840 5840 5838 5835 5833 5832 5829 5827 5824 5821 5818 5815 5812 5809 5805 5802 5799 5795 5790 5787 5783 5779 5776 5773 5770 5766 5763 5760 5757 5754 5752 5750 5747 5746 5744 5742 5740 5739 5738